Precipitable_Water
0.59 0.59 0.59 0.60 0.60 0.61 0.61 0.60 0.60 0.59 0.58 0.58 0.57 0.57 0.56 0.54 0.52 0.51 0.50 0.49 0.48 0.48 0.48 0.48 0.48 0.47 0.46 0.46 0.45 0.45 0.43 0.35 0.28 0.25 0.24 0.23 0.32 0.40 0.39 0.38 0.39 0.37 0.33 0.26 0.21 0.23 0.24 0.26 0.24 0.31 0.30 0.31 0.27 0.21 0.24 0.23 0.24 0.21 0.17 0.15 0.14 0.14 0.13 0.15 0.15 0.16 0.18 0.17 0.19 0.20 0.23 0.21 0.20 0.22 0.26 0.28 0.28 0.24 0.27 0.54 0.53 0.63 0.77 0.87 0.96 1.00 1.07 1.15
0.64 0.64 0.64 0.63 0.62 0.61 0.61 0.60 0.59 0.58 0.58 0.58 0.57 0.56 0.55 0.53 0.52 0.51 0.50 0.50 0.49 0.49 0.48 0.48 0.47 0.46 0.46 0.46 0.45 0.44 0.40 0.35 0.27 0.27 0.22 0.25 0.34 0.42 0.41 0.40 0.41 0.38 0.34 0.22 0.18 0.22 0.25 0.25 0.27 0.30 0.28 0.22 0.28 0.20 0.23 0.19 0.22 0.18 0.16 0.16 0.13 0.14 0.13 0.16 0.17 0.21 0.18 0.19 0.19 0.20 0.23 0.23 0.23 0.22 0.24 0.20 0.26 0.27 0.29 0.61 0.50 0.61 0.77 0.94 0.99 1.04 1.04 1.06
0.64 0.64 0.64 0.63 0.62 0.62 0.62 0.61 0.60 0.59 0.59 0.57 0.57 0.55 0.55 0.53 0.52 0.51 0.49 0.50 0.50 0.48 0.48 0.47 0.47 0.45 0.45 0.44 0.44 0.44 0.40 0.31 0.30 0.21 0.30 0.30 0.30 0.39 0.45 0.42 0.38 0.36 0.30 0.21 0.19 0.25 0.28 0.32 0.31 0.25 0.25 0.21 0.25 0.20 0.20 0.19 0.19 0.18 0.16 0.15 0.14 0.16 0.16 0.16 0.18 0.20 0.19 0.19 0.20 0.20 0.20 0.21 0.23 0.22 0.26 0.22 0.23 0.24 0.29 0.54 0.59 0.53 0.67 0.81 0.92 1.01 1.00 0.99
0.65 0.65 0.65 0.64 0.63 0.62 0.63 0.63 0.63 0.62 0.60 0.58 0.56 0.55 0.54 0.53 0.52 0.51 0.50 0.49 0.49 0.47 0.47 0.47 0.46 0.44 0.43 0.43 0.44 0.43 0.46 0.34 0.36 0.45 0.43 0.44 0.37 0.36 0.38 0.36 0.33 0.31 0.27 0.23 0.21 0.27 0.31 0.33 0.33 0.28 0.24 0.21 0.22 0.21 0.19 0.20 0.16 0.19 0.17 0.15 0.15 0.17 0.16 0.18 0.20 0.20 0.20 0.20 0.19 0.20 0.20 0.20 0.23 0.22 0.22 0.21 0.19 0.19 0.27 0.65 0.58 0.61 0.62 0.70 0.81 0.89 0.94 0.93
0.65 0.65 0.65 0.64 0.63 0.63 0.64 0.64 0.64 0.64 0.62 0.59 0.57 0.55 0.54 0.53 0.52 0.51 0.50 0.48 0.46 0.47 0.47 0.47 0.45 0.43 0.43 0.42 0.42 0.49 0.39 0.31 0.39 0.46 0.55 0.52 0.46 0.40 0.35 0.31 0.30 0.26 0.23 0.22 0.23 0.27 0.29 0.30 0.30 0.28 0.25 0.20 0.20 0.19 0.18 0.19 0.19 0.19 0.19 0.20 0.19 0.17 0.14 0.17 0.19 0.19 0.19 0.20 0.19 0.20 0.18 0.19 0.22 0.21 0.21 0.20 0.17 0.25 0.32 0.57 0.69 0.75 0.79 0.80 0.84 0.90 0.94 0.95
0.65 0.66 0.65 0.64 0.64 0.64 0.64 0.64 0.65 0.65 0.63 0.60 0.57 0.55 0.53 0.52 0.51 0.50 0.49 0.48 0.47 0.46 0.45 0.45 0.44 0.42 0.41 0.41 0.43 0.49 0.33 0.16 0.50 0.54 0.54 0.54 0.45 0.38 0.34 0.31 0.30 0.25 0.22 0.20 0.23 0.28 0.31 0.31 0.29 0.25 0.23 0.20 0.18 0.16 0.18 0.18 0.19 0.15 0.17 0.18 0.19 0.18 0.16 0.18 0.18 0.18 0.18 0.18 0.18 0.18 0.19 0.19 0.20 0.20 0.20 0.19 0.28 0.44 0.47 0.59 0.81 0.80 0.94 1.04 1.07 1.03 0.97 0.98
0.63 0.65 0.66 0.64 0.65 0.65 0.65 0.65 0.66 0.66 0.64 0.62 0.60 0.58 0.54 0.51 0.49 0.49 0.49 0.48 0.48 0.45 0.44 0.43 0.42 0.41 0.40 0.40 0.50 0.42 0.32 0.33 0.48 0.54 0.52 0.49 0.43 0.37 0.34 0.31 0.25 0.21 0.21 0.21 0.28 0.30 0.31 0.31 0.28 0.24 0.21 0.18 0.17 0.17 0.17 0.18 0.19 0.17 0.16 0.18 0.17 0.18 0.17 0.19 0.18 0.18 0.17 0.17 0.17 0.18 0.19 0.18 0.19 0.18 0.20 0.18 0.47 0.56 0.53 0.69 0.83 0.93 1.05 1.06 1.04 1.08 1.03 1.05
0.59 0.62 0.64 0.64 0.64 0.65 0.65 0.66 0.66 0.65 0.64 0.64 0.62 0.59 0.56 0.53 0.49 0.48 0.48 0.47 0.47 0.46 0.45 0.43 0.43 0.41 0.40 0.36 0.34 0.31 0.34 0.29 0.50 0.54 0.51 0.46 0.39 0.33 0.35 0.27 0.20 0.19 0.20 0.26 0.30 0.29 0.29 0.25 0.20 0.21 0.17 0.15 0.15 0.14 0.17 0.17 0.18 0.16 0.16 0.16 0.16 0.17 0.17 0.17 0.17 0.17 0.17 0.16 0.17 0.17 0.15 0.15 0.15 0.16 0.17 0.24 0.59 0.62 0.66 0.72 0.83 0.94 1.03 1.08 1.07 1.05 1.07 1.05
0.54 0.57 0.61 0.63 0.63 0.64 0.65 0.66 0.67 0.66 0.64 0.64 0.63 0.59 0.57 0.53 0.50 0.48 0.48 0.47 0.47 0.46 0.44 0.44 0.40 0.41 0.46 0.42 0.32 0.30 0.29 0.44 0.56 0.52 0.47 0.41 0.32 0.28 0.27 0.19 0.21 0.19 0.23 0.30 0.33 0.32 0.31 0.24 0.18 0.18 0.14 0.14 0.16 0.15 0.15 0.15 0.14 0.17 0.17 0.18 0.17 0.16 0.17 0.17 0.17 0.16 0.17 0.17 0.17 0.15 0.14 0.14 0.15 0.17 0.15 0.19 0.62 0.62 0.77 0.75 0.84 0.92 0.96 1.00 1.06 1.07 1.07 1.06
0.49 0.52 0.55 0.59 0.62 0.63 0.65 0.65 0.65 0.65 0.65 0.63 0.62 0.60 0.59 0.56 0.52 0.48 0.47 0.48 0.47 0.46 0.44 0.42 0.42 0.42 0.41 0.39 0.38 0.30 0.42 0.47 0.50 0.46 0.41 0.33 0.25 0.23 0.22 0.20 0.19 0.21 0.22 0.29 0.34 0.32 0.27 0.26 0.19 0.19 0.19 0.16 0.17 0.15 0.16 0.16 0.16 0.17 0.17 0.17 0.16 0.16 0.16 0.17 0.16 0.14 0.15 0.15 0.16 0.14 0.14 0.15 0.16 0.16 0.15 0.20 0.67 0.70 0.66 0.69 0.82 0.88 0.92 1.00 1.06 1.11 1.11 1.07
0.47 0.47 0.49 0.53 0.57 0.61 0.63 0.64 0.65 0.65 0.64 0.64 0.62 0.60 0.59 0.58 0.56 0.49 0.47 0.47 0.47 0.45 0.43 0.42 0.44 0.42 0.35 0.42 0.30 0.28 0.44 0.43 0.43 0.39 0.36 0.27 0.21 0.19 0.18 0.21 0.21 0.22 0.27 0.30 0.31 0.31 0.31 0.27 0.24 0.23 0.23 0.19 0.19 0.17 0.17 0.17 0.19 0.17 0.17 0.17 0.17 0.16 0.16 0.16 0.15 0.14 0.15 0.15 0.16 0.16 0.15 0.16 0.18 0.18 0.17 0.32 0.54 0.59 0.63 0.66 0.73 0.80 0.86 0.90 0.99 1.06 1.08 1.07
0.46 0.45 0.46 0.47 0.51 0.55 0.59 0.62 0.63 0.65 0.64 0.63 0.61 0.59 0.58 0.58 0.57 0.54 0.47 0.46 0.45 0.44 0.40 0.41 0.43 0.45 0.45 0.37 0.31 0.31 0.47 0.34 0.34 0.32 0.31 0.21 0.19 0.18 0.23 0.26 0.25 0.29 0.30 0.28 0.29 0.30 0.29 0.27 0.25 0.24 0.20 0.24 0.16 0.18 0.18 0.20 0.18 0.17 0.17 0.14 0.14 0.15 0.14 0.15 0.15 0.14 0.15 0.14 0.17 0.18 0.16 0.15 0.17 0.17 0.21 0.44 0.55 0.51 0.57 0.64 0.69 0.70 0.74 0.82 0.91 0.98 0.98 0.97
0.45 0.45 0.44 0.44 0.46 0.50 0.53 0.57 0.60 0.61 0.62 0.62 0.60 0.59 0.58 0.56 0.58 0.57 0.51 0.45 0.44 0.43 0.41 0.43 0.44 0.47 0.40 0.24 0.32 0.44 0.43 0.46 0.32 0.33 0.29 0.23 0.22 0.28 0.32 0.35 0.31 0.32 0.32 0.31 0.31 0.29 0.24 0.25 0.23 0.21 0.25 0.23 0.21 0.17 0.24 0.22 0.20 0.16 0.14 0.13 0.13 0.13 0.12 0.14 0.16 0.16 0.15 0.15 0.17 0.18 0.12 0.13 0.16 0.17 0.22 0.49 0.54 0.60 0.58 0.62 0.68 0.74 0.78 0.83 0.84 0.89 0.93 1.00
0.44 0.44 0.43 0.43 0.43 0.45 0.48 0.51 0.54 0.56 0.57 0.57 0.58 0.59 0.58 0.55 0.55 0.58 0.54 0.49 0.45 0.42 0.42 0.44 0.47 0.44 0.38 0.27 0.43 0.50 0.42 0.46 0.35 0.32 0.28 0.27 0.23 0.26 0.31 0.35 0.40 0.39 0.35 0.31 0.33 0.34 0.29 0.25 0.23 0.23 0.26 0.21 0.20 0.26 0.22 0.22 0.21 0.16 0.16 0.15 0.12 0.10 0.11 0.14 0.16 0.18 0.16 0.18 0.19 0.18 0.13 0.14 0.17 0.20 0.34 0.48 0.50 0.51 0.53 0.60 0.71 0.76 0.77 0.80 0.85 0.88 0.90 0.95
0.44 0.43 0.43 0.42 0.42 0.41 0.43 0.47 0.49 0.51 0.52 0.52 0.52 0.54 0.55 0.52 0.52 0.58 0.60 0.55 0.51 0.46 0.45 0.48 0.46 0.43 0.33 0.34 0.51 0.54 0.44 0.39 0.28 0.24 0.28 0.26 0.25 0.26 0.28 0.31 0.31 0.32 0.33 0.35 0.36 0.33 0.28 0.26 0.23 0.20 0.20 0.23 0.24 0.22 0.20 0.18 0.19 0.18 0.14 0.10 0.13 0.13 0.14 0.16 0.17 0.18 0.16 0.18 0.19 0.18 0.15 0.14 0.18 0.21 0.39 0.53 0.49 0.46 0.48 0.56 0.62 0.69 0.77 0.80 0.85 0.87 0.90 0.91
0.42 0.42 0.42 0.42 0.40 0.41 0.40 0.41 0.44 0.47 0.47 0.48 0.47 0.47 0.49 0.49 0.51 0.57 0.62 0.58 0.55 0.48 0.48 0.41 0.53 0.45 0.35 0.29 0.46 0.51 0.41 0.31 0.26 0.26 0.29 0.30 0.29 0.27 0.27 0.23 0.26 0.28 0.31 0.32 0.34 0.29 0.27 0.25 0.19 0.19 0.21 0.22 0.21 0.18 0.16 0.15 0.16 0.17 0.16 0.14 0.14 0.15 0.15 0.15 0.17 0.18 0.20 0.18 0.18 0.18 0.15 0.17 0.19 0.25 0.36 0.41 0.54 0.55 0.49 0.53 0.54 0.61 0.66 0.71 0.76 0.84 0.88 0.89
0.41 0.41 0.41 0.40 0.40 0.40 0.40 0.39 0.39 0.41 0.43 0.44 0.45 0.42 0.45 0.49 0.54 0.58 0.60 0.58 0.52 0.51 0.44 0.35 0.49 0.52 0.21 0.44 0.51 0.38 0.29 0.28 0.31 0.30 0.28 0.30 0.29 0.29 0.22 0.19 0.20 0.21 0.24 0.25 0.25 0.23 0.23 0.17 0.20 0.19 0.22 0.19 0.20 0.19 0.16 0.14 0.15 0.16 0.18 0.16 0.17 0.15 0.16 0.15 0.17 0.19 0.20 0.21 0.19 0.21 0.17 0.19 0.24 0.30 0.34 0.35 0.38 0.49 0.44 0.48 0.49 0.55 0.62 0.69 0.72 0.76 0.82 0.84
0.41 0.40 0.40 0.40 0.40 0.40 0.40 0.40 0.39 0.39 0.40 0.41 0.40 0.40 0.47 0.56 0.63 0.58 0.56 0.54 0.57 0.54 0.45 0.49 0.53 0.38 0.32 0.48 0.37 0.34 0.36 0.30 0.31 0.30 0.27 0.30 0.29 0.27 0.22 0.19 0.21 0.22 0.22 0.22 0.24 0.21 0.21 0.17 0.18 0.16 0.18 0.18 0.19 0.19 0.16 0.15 0.16 0.20 0.21 0.16 0.17 0.18 0.18 0.17 0.17 0.19 0.22 0.23 0.20 0.21 0.19 0.20 0.24 0.30 0.31 0.31 0.32 0.35 0.48 0.46 0.50 0.55 0.62 0.67 0.68 0.71 0.77 0.77
0.41 0.39 0.39 0.39 0.41 0.41 0.41 0.41 0.40 0.39 0.39 0.40 0.40 0.58 0.68 0.73 0.78 0.80 0.60 0.50 0.38 0.28 0.18 0.22 0.28 0.23 0.21 0.37 0.44 0.42 0.41 0.34 0.37 0.30 0.25 0.27 0.28 0.29 0.25 0.25 0.24 0.22 0.20 0.21 0.20 0.22 0.21 0.20 0.20 0.17 0.15 0.17 0.18 0.20 0.20 0.20 0.23 0.26 0.27 0.24 0.23 0.22 0.21 0.19 0.20 0.22 0.24 0.21 0.20 0.20 0.19 0.20 0.20 0.25 0.27 0.27 0.28 0.31 0.48 0.52 0.58 0.59 0.61 0.64 0.67 0.71 0.76 0.78
0.41 0.39 0.38 0.40 0.40 0.42 0.41 0.41 0.41 0.40 0.43 0.38 0.46 0.57 0.63 0.63 0.66 0.64 0.66 0.56 0.35 0.29 0.19 0.38 0.33 0.32 0.35 0.35 0.43 0.45 0.42 0.40 0.30 0.29 0.28 0.28 0.28 0.28 0.26 0.25 0.24 0.23 0.21 0.20 0.22 0.25 0.24 0.18 0.16 0.19 0.21 0.23 0.25 0.31 0.31 0.30 0.28 0.28 0.28 0.26 0.23 0.22 0.20 0.22 0.23 0.24 0.26 0.22 0.22 0.22 0.20 0.21 0.21 0.24 0.25 0.27 0.27 0.36 0.42 0.48 0.55 0.57 0.58 0.62 0.63 0.65 0.73 0.77
0.41 0.40 0.38 0.38 0.40 0.41 0.42 0.42 0.45 0.47 0.49 0.46 0.51 0.50 0.41 0.40 0.33 0.31 0.47 0.50 0.50 0.46 0.35 0.36 0.38 0.35 0.35 0.38 0.43 0.43 0.35 0.36 0.33 0.30 0.30 0.31 0.29 0.25 0.23 0.23 0.22 0.19 0.21 0.23 0.23 0.27 0.24 0.19 0.19 0.21 0.23 0.25 0.35 0.38 0.35 0.31 0.30 0.27 0.26 0.25 0.23 0.24 0.22 0.25 0.24 0.26 0.27 0.24 0.25 0.25 0.23 0.22 0.22 0.25 0.27 0.28 0.28 0.35 0.41 0.43 0.44 0.52 0.57 0.58 0.60 0.63 0.67 0.75
0.40 0.40 0.39 0.37 0.39 0.42 0.43 0.46 0.47 0.50 0.51 0.48 0.46 0.43 0.45 0.46 0.48 0.49 0.42 0.30 0.40 0.44 0.44 0.43 0.41 0.37 0.43 0.43 0.45 0.45 0.41 0.32 0.28 0.29 0.33 0.30 0.26 0.19 0.23 0.21 0.20 0.20 0.24 0.24 0.24 0.23 0.20 0.17 0.21 0.24 0.26 0.29 0.34 0.33 0.33 0.30 0.26 0.26 0.24 0.24 0.24 0.24 0.24 0.28 0.28 0.28 0.28 0.26 0.23 0.26 0.24 0.23 0.26 0.27 0.29 0.30 0.30 0.33 0.45 0.42 0.42 0.41 0.50 0.56 0.59 0.59 0.63 0.69
0.40 0.40 0.40 0.38 0.37 0.41 0.44 0.46 0.49 0.50 0.47 0.43 0.41 0.38 0.45 0.50 0.58 0.54 0.48 0.38 0.27 0.33 0.33 0.33 0.37 0.36 0.35 0.43 0.46 0.46 0.35 0.29 0.25 0.28 0.30 0.28 0.25 0.22 0.24 0.20 0.19 0.21 0.23 0.23 0.20 0.20 0.19 0.23 0.26 0.28 0.27 0.28 0.28 0.29 0.28 0.27 0.25 0.23 0.23 0.22 0.22 0.24 0.22 0.21 0.27 0.28 0.29 0.27 0.24 0.25 0.24 0.24 0.25 0.27 0.29 0.32 0.32 0.32 0.33 0.41 0.49 0.48 0.42 0.46 0.52 0.57 0.61 0.68
0.40 0.38 0.39 0.39 0.37 0.36 0.44 0.44 0.47 0.44 0.42 0.38 0.41 0.44 0.48 0.53 0.53 0.58 0.45 0.31 0.27 0.27 0.31 0.34 0.33 0.34 0.35 0.34 0.43 0.41 0.35 0.32 0.29 0.28 0.35 0.29 0.23 0.27 0.23 0.21 0.20 0.21 0.20 0.22 0.21 0.21 0.20 0.24 0.31 0.31 0.30 0.29 0.25 0.25 0.22 0.22 0.21 0.22 0.22 0.22 0.23 0.21 0.22 0.23 0.28 0.31 0.31 0.33 0.30 0.26 0.24 0.22 0.22 0.23 0.27 0.32 0.32 0.33 0.34 0.34 0.35 0.37 0.42 0.52 0.58 0.64 0.64 0.68
0.41 0.40 0.38 0.39 0.40 0.38 0.38 0.43 0.38 0.39 0.55 0.55 0.49 0.55 0.55 0.54 0.59 0.58 0.42 0.35 0.34 0.26 0.33 0.37 0.45 0.41 0.36 0.41 0.45 0.39 0.39 0.35 0.32 0.36 0.37 0.35 0.29 0.26 0.23 0.25 0.23 0.20 0.21 0.21 0.22 0.20 0.20 0.26 0.28 0.30 0.31 0.29 0.27 0.24 0.22 0.19 0.15 0.15 0.21 0.23 0.22 0.22 0.22 0.25 0.29 0.30 0.27 0.25 0.28 0.26 0.20 0.20 0.23 0.24 0.25 0.29 0.30 0.31 0.33 0.31 0.31 0.33 0.38 0.42 0.50 0.55 0.63 0.69
0.41 0.41 0.39 0.39 0.42 0.37 0.39 0.26 0.38 0.54 0.57 0.52 0.55 0.60 0.61 0.60 0.63 0.58 0.46 0.31 0.19 0.27 0.43 0.31 0.48 0.40 0.42 0.34 0.38 0.38 0.39 0.29 0.34 0.39 0.39 0.38 0.38 0.31 0.27 0.24 0.24 0.20 0.23 0.23 0.22 0.22 0.24 0.29 0.28 0.27 0.26 0.26 0.25 0.23 0.22 0.22 0.17 0.16 0.19 0.26 0.25 0.22 0.23 0.26 0.25 0.26 0.22 0.20 0.28 0.31 0.23 0.22 0.27 0.23 0.24 0.25 0.24 0.27 0.31 0.30 0.33 0.35 0.38 0.45 0.47 0.56 0.64 0.67
0.41 0.40 0.40 0.39 0.41 0.43 0.24 0.21 0.47 0.44 0.41 0.43 0.53 0.55 0.65 0.60 0.63 0.59 0.40 0.30 0.21 0.36 0.30 0.37 0.40 0.36 0.38 0.37 0.38 0.38 0.23 0.23 0.37 0.42 0.40 0.41 0.35 0.37 0.25 0.25 0.24 0.23 0.23 0.23 0.20 0.19 0.23 0.26 0.26 0.26 0.25 0.23 0.22 0.21 0.23 0.20 0.19 0.16 0.26 0.27 0.27 0.23 0.24 0.26 0.26 0.25 0.24 0.29 0.31 0.30 0.29 0.24 0.23 0.25 0.26 0.28 0.29 0.30 0.31 0.32 0.34 0.37 0.38 0.48 0.54 0.61 0.64 0.62
0.38 0.39 0.39 0.38 0.41 0.44 0.29 0.28 0.23 0.29 0.41 0.48 0.48 0.47 0.57 0.57 0.55 0.58 0.42 0.14 0.16 0.39 0.35 0.35 0.37 0.42 0.34 0.35 0.38 0.32 0.26 0.37 0.31 0.36 0.40 0.42 0.39 0.32 0.26 0.23 0.24 0.24 0.25 0.23 0.16 0.23 0.26 0.25 0.25 0.23 0.23 0.22 0.21 0.22 0.23 0.24 0.20 0.21 0.28 0.25 0.23 0.25 0.25 0.26 0.26 0.24 0.24 0.22 0.20 0.27 0.31 0.23 0.21 0.24 0.27 0.28 0.27 0.29 0.30 0.32 0.34 0.36 0.41 0.45 0.56 0.57 0.61 0.70
0.36 0.37 0.38 0.38 0.37 0.44 0.43 0.30 0.25 0.23 0.34 0.41 0.47 0.47 0.54 0.55 0.46 0.41 0.32 0.16 0.38 0.37 0.47 0.33 0.46 0.39 0.35 0.38 0.36 0.35 0.33 0.36 0.30 0.36 0.40 0.39 0.36 0.30 0.22 0.27 0.28 0.28 0.28 0.25 0.20 0.22 0.24 0.24 0.25 0.27 0.24 0.22 0.24 0.25 0.23 0.24 0.21 0.26 0.29 0.32 0.31 0.28 0.27 0.27 0.25 0.25 0.27 0.23 0.20 0.22 0.26 0.20 0.20 0.24 0.27 0.30 0.26 0.26 0.30 0.33 0.36 0.41 0.42 0.47 0.53 0.59 0.62 0.69
0.34 0.35 0.36 0.36 0.35 0.43 0.41 0.43 0.44 0.43 0.43 0.46 0.46 0.51 0.42 0.40 0.40 0.28 0.25 0.14 0.40 0.31 0.35 0.36 0.35 0.32 0.33 0.33 0.34 0.35 0.32 0.32 0.34 0.36 0.37 0.34 0.35 0.33 0.28 0.32 0.28 0.27 0.25 0.27 0.25 0.23 0.25 0.28 0.28 0.26 0.24 0.25 0.25 0.27 0.28 0.27 0.26 0.29 0.30 0.28 0.28 0.26 0.27 0.27 0.27 0.27 0.24 0.20 0.23 0.27 0.28 0.27 0.21 0.26 0.27 0.25 0.29 0.29 0.32 0.34 0.38 0.41 0.45 0.47 0.49 0.53 0.59 0.63
0.33 0.32 0.33 0.36 0.27 0.36 0.40 0.36 0.51 0.60 0.60 0.54 0.52 0.47 0.39 0.35 0.24 0.25 0.18 0.25 0.36 0.38 0.38 0.37 0.34 0.37 0.32 0.30 0.29 0.31 0.31 0.32 0.32 0.33 0.33 0.36 0.33 0.32 0.30 0.26 0.28 0.25 0.24 0.24 0.23 0.24 0.23 0.25 0.24 0.27 0.27 0.25 0.24 0.23 0.25 0.25 0.27 0.27 0.27 0.27 0.27 0.24 0.27 0.26 0.26 0.26 0.19 0.18 0.24 0.28 0.28 0.30 0.20 0.24 0.29 0.30 0.33 0.35 0.34 0.35 0.37 0.41 0.44 0.46 0.49 0.50 0.53 0.62
0.33 0.32 0.31 0.31 0.31 0.35 0.25 0.31 0.56 0.60 0.59 0.66 0.55 0.35 0.34 0.20 0.30 0.16 0.14 0.46 0.26 0.36 0.34 0.33 0.36 0.35 0.34 0.35 0.33 0.33 0.29 0.31 0.34 0.31 0.30 0.29 0.27 0.26 0.26 0.22 0.23 0.19 0.19 0.20 0.20 0.23 0.21 0.22 0.26 0.25 0.27 0.25 0.20 0.20 0.22 0.22 0.23 0.25 0.25 0.24 0.19 0.18 0.20 0.19 0.22 0.20 0.19 0.18 0.25 0.30 0.31 0.25 0.25 0.28 0.31 0.34 0.34 0.35 0.36 0.38 0.40 0.43 0.44 0.47 0.49 0.50 0.56 0.63
0.30 0.30 0.32 0.31 0.32 0.29 0.30 0.33 0.42 0.49 0.58 0.63 0.43 0.31 0.24 0.20 0.14 0.20 0.17 0.22 0.26 0.33 0.34 0.37 0.34 0.34 0.34 0.33 0.30 0.32 0.34 0.28 0.32 0.32 0.28 0.30 0.29 0.27 0.28 0.24 0.26 0.23 0.18 0.23 0.20 0.21 0.23 0.23 0.24 0.25 0.26 0.26 0.23 0.17 0.18 0.17 0.18 0.18 0.18 0.18 0.16 0.12 0.15 0.15 0.19 0.21 0.22 0.25 0.30 0.30 0.34 0.26 0.30 0.34 0.34 0.34 0.35 0.39 0.41 0.41 0.45 0.45 0.46 0.47 0.50 0.56 0.58 0.61
0.26 0.27 0.24 0.26 0.28 0.27 0.28 0.35 0.45 0.60 0.58 0.46 0.31 0.30 0.25 0.18 0.16 0.25 0.23 0.30 0.31 0.41 0.41 0.38 0.39 0.38 0.32 0.29 0.31 0.30 0.28 0.31 0.30 0.31 0.32 0.30 0.28 0.25 0.27 0.26 0.26 0.25 0.23 0.24 0.21 0.22 0.19 0.20 0.24 0.24 0.24 0.26 0.25 0.20 0.18 0.17 0.18 0.19 0.22 0.21 0.20 0.18 0.17 0.14 0.18 0.16 0.19 0.22 0.25 0.31 0.27 0.26 0.26 0.31 0.38 0.37 0.40 0.44 0.45 0.45 0.47 0.47 0.48 0.51 0.58 0.58 0.59 0.59
0.25 0.22 0.29 0.36 0.33 0.29 0.29 0.32 0.41 0.55 0.52 0.39 0.30 0.23 0.17 0.16 0.20 0.16 0.21 0.26 0.34 0.36 0.33 0.37 0.35 0.33 0.30 0.30 0.31 0.33 0.31 0.28 0.31 0.31 0.30 0.28 0.26 0.26 0.26 0.27 0.28 0.26 0.26 0.22 0.25 0.24 0.23 0.23 0.29 0.29 0.28 0.27 0.24 0.21 0.20 0.19 0.19 0.21 0.23 0.24 0.22 0.21 0.23 0.18 0.22 0.22 0.22 0.22 0.22 0.25 0.25 0.31 0.32 0.39 0.42 0.40 0.40 0.43 0.45 0.46 0.47 0.48 0.52 0.54 0.56 0.56 0.58 0.59
0.23 0.19 0.25 0.26 0.30 0.31 0.33 0.31 0.41 0.50 0.48 0.41 0.27 0.21 0.18 0.20 0.16 0.22 0.22 0.31 0.31 0.27 0.30 0.32 0.37 0.32 0.31 0.29 0.32 0.31 0.33 0.29 0.31 0.31 0.29 0.29 0.29 0.26 0.28 0.29 0.28 0.29 0.27 0.22 0.23 0.19 0.22 0.20 0.26 0.27 0.28 0.27 0.25 0.23 0.21 0.21 0.15 0.20 0.21 0.21 0.24 0.30 0.26 0.24 0.25 0.26 0.25 0.22 0.20 0.27 0.27 0.31 0.38 0.37 0.39 0.39 0.38 0.39 0.42 0.42 0.43 0.48 0.51 0.53 0.55 0.58 0.60 0.59
0.19 0.21 0.14 0.20 0.25 0.34 0.38 0.37 0.41 0.45 0.46 0.33 0.25 0.18 0.22 0.22 0.22 0.20 0.27 0.28 0.30 0.31 0.25 0.23 0.29 0.30 0.29 0.28 0.29 0.29 0.30 0.30 0.29 0.31 0.29 0.30 0.27 0.27 0.27 0.29 0.32 0.31 0.30 0.26 0.21 0.23 0.19 0.21 0.25 0.24 0.23 0.26 0.27 0.26 0.25 0.23 0.22 0.20 0.18 0.21 0.24 0.25 0.25 0.23 0.20 0.23 0.22 0.19 0.22 0.25 0.24 0.25 0.25 0.24 0.33 0.36 0.35 0.36 0.36 0.36 0.42 0.46 0.46 0.48 0.51 0.54 0.55 0.54
0.22 0.20 0.18 0.14 0.13 0.34 0.57 0.45 0.38 0.43 0.42 0.31 0.21 0.21 0.25 0.20 0.24 0.24 0.30 0.34 0.34 0.33 0.24 0.21 0.28 0.31 0.30 0.30 0.28 0.29 0.28 0.25 0.28 0.29 0.26 0.28 0.26 0.30 0.27 0.26 0.30 0.28 0.28 0.28 0.22 0.25 0.24 0.19 0.22 0.25 0.25 0.25 0.27 0.26 0.23 0.23 0.23 0.17 0.18 0.22 0.17 0.18 0.18 0.22 0.19 0.16 0.16 0.17 0.19 0.21 0.23 0.24 0.25 0.26 0.30 0.32 0.32 0.33 0.34 0.37 0.40 0.44 0.47 0.49 0.51 0.52 0.53 0.53
0.28 0.30 0.13 0.11 0.13 0.19 0.52 0.63 0.50 0.45 0.35 0.27 0.23 0.20 0.22 0.19 0.18 0.21 0.27 0.30 0.32 0.28 0.23 0.24 0.24 0.29 0.28 0.29 0.32 0.31 0.28 0.26 0.29 0.27 0.25 0.26 0.23 0.33 0.27 0.27 0.26 0.30 0.30 0.28 0.24 0.24 0.23 0.18 0.20 0.26 0.25 0.25 0.25 0.22 0.18 0.21 0.25 0.21 0.18 0.17 0.20 0.18 0.17 0.16 0.18 0.20 0.20 0.18 0.17 0.20 0.22 0.20 0.27 0.29 0.33 0.34 0.34 0.36 0.37 0.39 0.41 0.45 0.47 0.52 0.54 0.54 0.52 0.50
0.24 0.27 0.19 0.30 0.38 0.35 0.40 0.61 0.53 0.44 0.38 0.25 0.25 0.23 0.25 0.21 0.22 0.26 0.30 0.30 0.28 0.25 0.23 0.23 0.25 0.22 0.24 0.27 0.31 0.30 0.35 0.31 0.31 0.29 0.26 0.26 0.25 0.38 0.31 0.29 0.29 0.30 0.31 0.31 0.27 0.27 0.22 0.25 0.18 0.25 0.26 0.25 0.19 0.21 0.20 0.21 0.19 0.22 0.19 0.17 0.19 0.19 0.27 0.22 0.20 0.17 0.15 0.16 0.17 0.18 0.18 0.26 0.33 0.38 0.37 0.34 0.36 0.39 0.40 0.43 0.47 0.48 0.51 0.54 0.56 0.55 0.54 0.52
0.23 0.19 0.24 0.43 0.51 0.50 0.52 0.57 0.46 0.36 0.30 0.32 0.33 0.28 0.27 0.24 0.25 0.28 0.32 0.32 0.29 0.32 0.25 0.24 0.25 0.23 0.22 0.24 0.27 0.29 0.30 0.32 0.34 0.32 0.31 0.30 0.27 0.25 0.32 0.31 0.32 0.29 0.32 0.31 0.29 0.29 0.21 0.22 0.17 0.20 0.21 0.19 0.19 0.23 0.23 0.23 0.23 0.21 0.22 0.22 0.22 0.21 0.19 0.17 0.18 0.24 0.20 0.17 0.17 0.18 0.19 0.25 0.35 0.41 0.37 0.38 0.39 0.40 0.43 0.46 0.50 0.53 0.55 0.56 0.56 0.58 0.56 0.52
0.21 0.14 0.23 0.50 0.66 0.66 0.55 0.40 0.35 0.34 0.28 0.24 0.22 0.25 0.22 0.24 0.20 0.18 0.25 0.29 0.30 0.30 0.31 0.27 0.26 0.24 0.22 0.23 0.27 0.29 0.30 0.29 0.32 0.32 0.33 0.31 0.34 0.29 0.33 0.33 0.32 0.33 0.31 0.29 0.28 0.33 0.28 0.24 0.20 0.17 0.17 0.18 0.20 0.24 0.25 0.24 0.22 0.21 0.21 0.21 0.23 0.23 0.23 0.23 0.20 0.24 0.24 0.23 0.23 0.23 0.19 0.23 0.38 0.42 0.41 0.39 0.41 0.41 0.46 0.46 0.50 0.54 0.55 0.56 0.58 0.59 0.58 0.56
0.30 0.25 0.50 0.64 0.65 0.59 0.45 0.32 0.35 0.31 0.25 0.22 0.25 0.26 0.28 0.28 0.26 0.28 0.25 0.28 0.29 0.33 0.30 0.26 0.23 0.21 0.22 0.21 0.23 0.26 0.29 0.28 0.31 0.31 0.33 0.34 0.35 0.36 0.35 0.34 0.33 0.30 0.31 0.29 0.29 0.31 0.29 0.21 0.17 0.17 0.17 0.18 0.19 0.20 0.20 0.19 0.18 0.16 0.17 0.19 0.20 0.20 0.22 0.21 0.21 0.22 0.18 0.20 0.18 0.19 0.17 0.24 0.37 0.41 0.40 0.43 0.44 0.43 0.48 0.47 0.48 0.54 0.55 0.56 0.57 0.58 0.59 0.55
0.29 0.29 0.40 0.62 0.68 0.60 0.43 0.29 0.26 0.27 0.28 0.29 0.27 0.26 0.30 0.29 0.27 0.26 0.26 0.27 0.27 0.30 0.30 0.28 0.25 0.22 0.21 0.25 0.24 0.22 0.26 0.23 0.28 0.30 0.31 0.35 0.33 0.38 0.38 0.38 0.37 0.32 0.31 0.35 0.28 0.35 0.24 0.25 0.19 0.15 0.13 0.13 0.13 0.13 0.13 0.18 0.22 0.19 0.19 0.21 0.20 0.20 0.21 0.22 0.21 0.23 0.16 0.20 0.18 0.17 0.14 0.23 0.35 0.41 0.41 0.40 0.40 0.43 0.49 0.51 0.52 0.52 0.55 0.57 0.57 0.57 0.58 0.55
0.38 0.44 0.48 0.51 0.61 0.55 0.38 0.40 0.33 0.27 0.28 0.26 0.26 0.27 0.28 0.27 0.28 0.28 0.29 0.29 0.31 0.31 0.30 0.28 0.28 0.28 0.27 0.27 0.26 0.26 0.26 0.23 0.23 0.27 0.29 0.31 0.34 0.37 0.35 0.35 0.37 0.32 0.35 0.39 0.34 0.33 0.25 0.25 0.23 0.16 0.12 0.10 0.10 0.13 0.13 0.15 0.15 0.19 0.20 0.21 0.21 0.20 0.22 0.19 0.16 0.18 0.14 0.21 0.19 0.17 0.20 0.27 0.35 0.37 0.37 0.37 0.38 0.44 0.46 0.51 0.53 0.55 0.55 0.54 0.55 0.56 0.55 0.54
0.38 0.30 0.42 0.43 0.52 0.50 0.40 0.43 0.38 0.34 0.30 0.28 0.25 0.26 0.27 0.25 0.28 0.31 0.30 0.28 0.32 0.32 0.30 0.30 0.32 0.31 0.29 0.29 0.27 0.26 0.26 0.26 0.24 0.25 0.25 0.25 0.31 0.31 0.32 0.34 0.33 0.33 0.34 0.35 0.34 0.30 0.25 0.25 0.22 0.20 0.17 0.14 0.15 0.19 0.23 0.21 0.19 0.16 0.19 0.20 0.21 0.22 0.23 0.22 0.21 0.18 0.17 0.22 0.20 0.24 0.25 0.27 0.29 0.33 0.33 0.34 0.36 0.39 0.44 0.44 0.48 0.51 0.54 0.55 0.57 0.57 0.55 0.54
0.50 0.41 0.37 0.35 0.44 0.43 0.43 0.44 0.38 0.34 0.25 0.26 0.20 0.25 0.23 0.24 0.28 0.30 0.34 0.28 0.33 0.32 0.32 0.31 0.30 0.28 0.29 0.28 0.27 0.27 0.27 0.26 0.27 0.25 0.28 0.27 0.26 0.29 0.31 0.32 0.32 0.33 0.31 0.30 0.31 0.27 0.24 0.20 0.21 0.19 0.18 0.17 0.18 0.16 0.18 0.20 0.18 0.19 0.18 0.19 0.21 0.21 0.22 0.20 0.18 0.17 0.23 0.18 0.16 0.24 0.27 0.24 0.27 0.30 0.32 0.32 0.33 0.35 0.43 0.49 0.48 0.52 0.53 0.56 0.56 0.58 0.59 0.57
0.37 0.45 0.49 0.50 0.43 0.39 0.37 0.38 0.38 0.37 0.36 0.34 0.30 0.30 0.27 0.27 0.29 0.27 0.35 0.36 0.37 0.40 0.32 0.33 0.29 0.30 0.30 0.28 0.29 0.25 0.26 0.25 0.27 0.27 0.28 0.27 0.29 0.28 0.28 0.31 0.30 0.32 0.30 0.28 0.28 0.24 0.21 0.17 0.18 0.16 0.14 0.14 0.14 0.13 0.14 0.13 0.12 0.13 0.15 0.17 0.18 0.21 0.21 0.20 0.19 0.20 0.20 0.17 0.15 0.20 0.23 0.21 0.25 0.29 0.31 0.32 0.33 0.34 0.36 0.45 0.45 0.49 0.53 0.54 0.54 0.54 0.54 0.55
0.39 0.46 0.49 0.54 0.43 0.48 0.45 0.43 0.40 0.38 0.37 0.35 0.32 0.31 0.29 0.29 0.28 0.32 0.33 0.39 0.39 0.38 0.38 0.31 0.32 0.31 0.34 0.35 0.32 0.29 0.30 0.23 0.25 0.29 0.28 0.29 0.29 0.27 0.25 0.27 0.30 0.30 0.28 0.26 0.25 0.24 0.20 0.17 0.17 0.17 0.16 0.18 0.19 0.20 0.21 0.18 0.18 0.16 0.15 0.15 0.15 0.16 0.17 0.18 0.18 0.20 0.20 0.19 0.20 0.21 0.22 0.22 0.27 0.28 0.30 0.31 0.34 0.36 0.39 0.44 0.49 0.45 0.45 0.47 0.51 0.55 0.55 0.56
0.21 0.29 0.37 0.47 0.45 0.47 0.46 0.40 0.39 0.37 0.35 0.38 0.31 0.35 0.33 0.32 0.31 0.32 0.35 0.35 0.34 0.38 0.41 0.33 0.34 0.34 0.36 0.35 0.32 0.29 0.32 0.32 0.31 0.26 0.29 0.27 0.29 0.30 0.28 0.29 0.30 0.33 0.30 0.28 0.26 0.29 0.22 0.23 0.23 0.24 0.20 0.20 0.21 0.21 0.21 0.19 0.18 0.16 0.16 0.17 0.18 0.19 0.18 0.18 0.19 0.21 0.21 0.20 0.22 0.22 0.21 0.22 0.30 0.32 0.31 0.35 0.36 0.36 0.36 0.38 0.41 0.45 0.46 0.47 0.48 0.51 0.55 0.57
0.25 0.36 0.38 0.34 0.31 0.38 0.40 0.41 0.38 0.37 0.35 0.37 0.33 0.35 0.33 0.34 0.31 0.33 0.31 0.36 0.33 0.32 0.34 0.36 0.37 0.36 0.40 0.36 0.34 0.32 0.36 0.33 0.31 0.30 0.31 0.28 0.24 0.31 0.26 0.30 0.31 0.28 0.28 0.27 0.27 0.30 0.26 0.24 0.25 0.23 0.18 0.18 0.22 0.22 0.22 0.23 0.21 0.19 0.18 0.19 0.19 0.18 0.15 0.19 0.17 0.23 0.20 0.20 0.21 0.21 0.21 0.24 0.30 0.32 0.33 0.33 0.34 0.34 0.34 0.36 0.38 0.42 0.46 0.46 0.45 0.48 0.48 0.49
0.26 0.35 0.40 0.39 0.33 0.38 0.37 0.38 0.37 0.34 0.31 0.36 0.36 0.36 0.33 0.35 0.37 0.34 0.29 0.37 0.38 0.37 0.34 0.32 0.35 0.37 0.35 0.33 0.31 0.33 0.36 0.35 0.33 0.33 0.32 0.32 0.32 0.32 0.30 0.29 0.29 0.27 0.26 0.26 0.30 0.26 0.27 0.23 0.21 0.21 0.17 0.17 0.22 0.23 0.22 0.22 0.19 0.17 0.20 0.23 0.22 0.22 0.23 0.23 0.25 0.27 0.26 0.25 0.21 0.19 0.23 0.29 0.30 0.32 0.31 0.32 0.34 0.34 0.35 0.37 0.38 0.40 0.44 0.45 0.44 0.45 0.47 0.49
Wind_Speed
15 15 15 15 15 16 16 16 16 16 16 16 16 16 16 16 16 16 16 16 16 16 16 16 17 17 17 18 18 18 19 19 19 19 20 20 19 19 18 17 18 18 18 18 17 17 17 17 17 17 17 17 16 16 16 16 16 16 15 16 16 16 15 14 13 12 11 11 12 12 12 14 14 13 14 15 15 15 13 11 13 14 14 15 14 14 15 15
15 15 15 15 15 16 16 16 16 16 16 16 16 16 16 16 16 16 16 16 16 16 16 16 16 17 17 17 18 18 18 18 19 20 20 19 19 19 19 18 18 18 17 18 18 17 17 17 17 17 17 16 16 16 15 15 16 15 14 15 16 15 14 14 14 12 12 13 13 12 12 14 15 14 15 15 14 13 11 10 11 12 12 12 13 15 15 15
15 15 15 15 15 15 15 15 15 15 16 16 16 16 16 16 15 15 15 15 15 15 16 16 16 16 16 17 17 16 17 17 17 18 17 17 19 19 18 18 18 18 18 18 18 18 18 18 17 16 16 16 16 16 15 14 15 16 15 15 15 15 15 15 15 14 15 16 15 14 13 14 14 14 14 13 13 13 11 11 12 13 14 13 14 15 15 15
15 15 15 15 15 15 15 15 15 15 15 15 15 15 15 15 15 15 15 15 15 15 15 15 15 16 16 16 15 15 15 15 14 14 14 14 16 17 17 18 18 18 18 18 19 19 19 19 17 17 16 16 16 16 16 15 14 15 15 15 15 15 16 17 16 14 14 14 14 14 15 15 15 15 15 15 15 15 13 14 14 13 14 15 16 15 15 14
15 15 15 15 15 15 15 15 15 15 15 15 15 15 15 15 15 14 14 14 15 15 15 15 15 15 15 15 14 14 14 12 11 12 12 12 14 15 16 17 17 17 17 18 18 19 19 19 17 17 17 16 16 15 16 17 16 14 15 16 15 16 16 18 18 15 13 13 13 13 15 17 17 17 16 16 16 16 14 14 14 12 12 14 16 15 14 13
15 15 15 15 15 15 15 15 15 14 14 14 14 14 14 14 14 14 14 14 14 14 14 14 14 14 14 14 14 13 12 11 11 12 12 12 12 14 15 15 16 16 16 17 17 18 18 18 17 16 16 15 16 15 15 17 16 15 15 16 16 17 17 18 18 17 15 15 14 15 17 17 18 17 17 16 14 14 12 11 12 11 11 12 13 13 12 13
14 14 14 14 14 14 14 14 14 14 14 14 14 14 14 14 14 14 14 14 14 14 13 13 13 13 13 13 13 12 12 13 13 12 12 12 12 13 14 14 15 15 15 16 17 17 17 17 16 15 14 14 15 15 16 17 16 16 15 15 17 18 18 17 17 17 15 13 12 14 16 17 17 16 17 14 11 10 9 9 10 10 10 10 11 11 12 12
14 14 14 14 14 14 14 14 14 14 14 14 13 13 13 13 13 13 14 13 13 13 12 12 12 12 12 11 11 11 12 13 12 12 12 12 12 12 12 13 14 14 15 16 16 17 16 15 15 15 14 13 14 14 14 15 15 16 16 16 17 17 18 18 18 18 16 15 13 14 15 16 16 15 15 11 8 9 8 8 9 9 9 10 11 11 12 12
14 14 14 14 14 14 14 14 14 14 14 13 13 13 13 13 13 13 13 13 12 12 12 11 11 11 10 10 10 10 11 10 10 10 11 11 11 11 12 13 13 14 15 15 16 16 15 14 14 13 13 13 14 14 13 13 13 14 16 16 15 16 17 18 18 18 17 16 15 14 15 16 15 13 13 11 9 9 8 8 8 9 9 10 12 12 12 12
14 14 13 13 13 14 14 14 14 13 13 13 13 13 12 12 12 12 12 12 12 11 11 11 10 10 10 10 9 9 9 9 9 9 10 10 10 11 11 12 13 14 15 14 15 15 14 14 14 13 14 14 14 14 14 14 14 13 14 14 15 15 17 17 17 16 15 15 14 13 13 14 14 12 11 11 11 9 8 8 8 8 8 10 12 12 12 12
14 14 14 13 13 13 14 14 13 13 13 13 12 12 12 12 12 12 11 11 11 11 11 10 10 9 9 10 9 9 9 8 8 8 9 9 9 10 11 11 12 14 14 14 14 15 14 15 14 13 13 13 13 13 13 14 15 15 13 12 14 15 16 16 15 15 14 13 13 13 12 13 12 11 11 12 12 10 9 8 8 7 8 10 11 11 12 12
14 13 14 13 13 13 13 13 13 13 13 13 12 12 12 12 11 11 11 11 11 11 11 10 9 9 9 9 10 10 9 8 7 7 8 7 8 9 10 10 11 13 14 14 13 13 14 15 13 13 13 11 11 11 11 13 14 16 15 13 13 14 15 16 15 15 14 12 13 12 11 12 11 11 12 12 12 9 8 8 7 7 8 9 9 10 12 12
13 13 13 13 13 13 13 13 13 13 13 13 12 12 12 12 11 11 11 11 11 10 10 10 9 9 9 9 10 9 9 9 7 7 7 7 8 8 9 10 11 13 14 13 12 12 13 15 13 13 13 12 11 11 11 12 11 13 14 13 13 13 14 15 14 14 13 12 13 11 10 12 11 11 11 12 11 9 8 8 7 7 7 7 8 9 10 10
13 13 13 13 13 13 13 13 13 13 13 13 13 12 12 12 11 11 11 11 10 10 10 10 9 9 9 9 10 9 9 8 7 8 8 8 9 9 9 11 11 12 13 13 13 12 12 13 13 13 13 12 12 12 11 11 10 9 10 11 11 11 12 12 13 13 12 12 12 10 10 11 10 10 10 13 13 11 9 8 8 7 7 6 7 8 8 9
12 13 13 13 13 13 13 12 12 12 13 13 12 13 12 12 12 11 11 11 10 10 10 9 9 8 8 10 11 9 9 8 8 9 9 9 10 10 9 10 11 11 11 12 12 11 11 11 11 12 13 12 12 11 10 10 9 9 9 10 10 10 10 10 12 13 11 11 12 11 9 10 10 11 12 14 13 12 10 10 9 7 7 6 6 7 8 9
12 12 12 12 12 12 12 12 12 12 12 12 12 12 12 13 12 12 11 11 10 10 10 9 9 8 8 9 9 8 9 9 9 9 9 10 10 9 8 8 9 10 11 11 11 10 10 10 11 12 12 11 11 10 9 9 9 8 9 9 9 11 12 12 12 13 11 9 11 11 9 8 8 9 13 13 11 12 11 11 10 8 7 7 6 7 7 8
11 11 11 11 11 12 12 12 12 12 12 12 12 12 12 12 12 12 11 11 10 10 10 9 8 8 9 8 8 8 9 9 9 9 9 10 10 8 7 7 8 9 9 9 10 9 8 9 10 11 10 10 10 9 9 10 10 9 10 10 10 11 13 11 10 12 11 8 10 11 9 8 8 7 10 11 10 10 11 12 11 9 9 8 7 7 7 8
11 11 11 11 11 11 11 11 11 11 11 11 12 12 11 11 12 12 11 11 10 10 10 10 8 8 8 9 9 9 9 9 9 9 9 10 10 10 8 8 7 8 8 7 8 8 8 8 8 9 9 9 9 9 9 11 10 8 9 10 10 10 10 10 11 12 12 9 9 10 9 9 10 9 9 10 10 9 12 13 12 10 9 9 8 8 8 9
11 11 11 11 10 10 10 10 11 11 11 11 12 12 11 11 11 11 11 11 10 9 9 10 9 8 7 8 9 9 8 9 8 8 9 9 9 10 10 9 8 8 8 6 6 8 7 6 7 8 8 8 9 9 10 11 10 8 8 8 8 9 9 10 12 11 11 10 8 8 10 11 11 12 11 11 10 9 11 13 11 11 10 9 9 8 9 10
11 11 11 11 10 10 10 10 10 10 10 10 11 10 10 10 9 10 11 12 13 13 12 12 12 12 10 9 8 8 8 8 8 9 10 9 9 9 9 9 9 9 9 8 7 7 7 7 8 9 8 9 10 10 10 9 9 9 8 7 7 7 7 6 10 11 8 8 8 7 9 11 10 11 13 11 9 9 11 11 11 11 11 10 9 10 11 11
12 11 11 11 11 10 10 10 10 10 10 10 11 10 11 11 10 10 11 13 14 16 16 15 15 15 14 12 9 8 8 8 10 10 10 10 10 9 9 9 9 9 9 9 8 8 8 8 9 11 10 10 10 9 8 8 8 9 9 8 7 5 4 2 7 10 8 7 9 7 7 10 8 9 11 10 9 10 12 11 11 12 11 11 10 11 12 11
12 12 11 11 11 10 10 10 10 10 10 10 11 11 12 12 12 12 12 13 15 16 17 17 16 16 16 15 13 11 9 9 10 11 10 10 10 9 9 9 9 9 8 8 8 8 9 10 11 11 10 10 10 9 8 8 9 9 9 9 8 5 3 3 5 7 8 8 10 9 8 10 10 8 9 8 9 11 13 13 13 13 12 13 12 12 13 12
13 12 12 11 11 11 11 10 10 10 10 11 11 12 12 13 13 12 13 14 15 16 18 18 18 17 16 15 14 13 11 10 11 12 11 11 11 11 10 9 9 9 8 8 8 9 10 11 12 11 9 9 10 9 8 8 10 10 11 10 10 9 4 4 6 7 8 9 10 10 10 12 12 9 8 7 9 11 12 11 12 14 14 15 14 13 13 13
13 12 12 12 12 12 11 11 11 11 11 12 13 13 12 13 13 11 11 13 14 15 17 18 18 18 18 16 14 13 13 12 12 13 13 12 11 10 11 11 10 10 10 11 11 11 11 10 9 8 8 9 9 9 8 8 10 11 11 12 12 11 7 5 7 8 8 9 8 8 10 12 13 12 11 10 9 11 12 10 11 13 15 15 14 13 13 14
13 13 12 12 12 12 12 12 12 11 11 12 12 13 12 13 13 11 11 12 13 13 15 16 16 17 18 16 15 15 15 14 15 14 15 14 12 10 11 11 11 11 12 13 13 13 13 11 8 7 8 8 7 8 9 8 9 9 11 13 13 13 11 8 8 8 8 10 10 8 9 12 13 13 14 12 10 12 14 12 13 13 12 14 15 15 15 14
14 13 13 13 12 12 12 11 11 11 12 12 11 12 12 12 11 11 11 12 12 12 11 11 12 13 14 15 15 14 14 14 15 16 16 16 14 12 11 10 10 11 11 11 11 11 12 12 10 8 8 8 6 8 9 8 8 9 10 11 12 13 13 12 11 9 9 10 10 9 8 10 12 13 14 13 12 15 16 12 11 10 9 11 13 14 15 14
15 14 13 13 12 12 11 11 11 12 13 12 10 10 10 10 10 10 9 10 11 10 10 9 9 10 11 13 13 10 11 12 13 14 15 16 15 13 13 12 10 11 10 9 10 10 9 9 10 8 9 9 9 10 11 9 10 11 11 11 11 12 12 12 12 11 11 11 10 9 9 10 11 12 13 13 13 13 13 11 9 9 9 11 13 14 15 15
16 15 14 14 13 12 11 12 12 12 13 13 11 11 11 10 10 9 8 9 10 8 9 9 9 9 10 13 14 11 11 10 10 12 14 15 14 12 13 14 12 12 11 9 11 12 9 9 10 9 9 10 12 13 13 10 10 11 11 11 11 12 12 11 11 12 12 11 11 12 10 10 12 13 13 13 12 10 11 11 9 9 9 10 14 14 13 12
17 17 16 15 14 13 12 12 12 12 12 13 12 12 12 11 10 8 8 8 9 8 9 10 10 10 11 13 14 14 13 10 9 11 12 13 13 12 12 13 12 12 13 12 11 13 12 11 11 10 8 10 11 12 12 12 12 12 11 10 10 10 12 13 12 12 10 10 12 13 11 11 12 13 12 12 12 12 12 12 10 7 6 8 12 12 12 12
18 18 17 16 15 13 13 13 13 12 12 13 12 12 12 11 9 9 9 9 10 9 9 9 9 10 11 12 13 14 14 12 10 12 12 11 12 12 12 13 12 12 12 12 11 12 13 11 11 10 9 9 10 11 11 12 12 11 10 11 10 10 11 13 13 12 10 10 12 12 12 12 12 12 12 11 12 13 12 12 11 8 7 8 8 8 10 11
19 19 18 17 15 14 13 14 13 12 12 12 12 12 11 10 9 9 9 9 9 9 8 8 9 11 12 13 12 12 13 13 12 12 12 11 11 13 12 12 13 12 12 12 10 11 13 12 11 11 12 11 11 12 12 12 11 9 9 9 8 9 10 10 11 10 10 12 12 10 11 12 13 12 12 11 11 12 12 12 12 11 10 9 7 6 6 8
20 20 19 18 17 16 15 15 14 12 12 12 12 11 10 9 10 10 9 8 8 8 8 8 9 11 12 13 13 13 13 13 13 12 12 10 10 12 12 12 12 10 11 12 11 10 12 13 12 11 12 11 10 12 12 10 9 10 9 8 8 9 9 9 10 10 10 12 12 10 9 10 12 13 12 10 9 10 12 12 12 12 11 10 9 9 8 8
21 20 20 19 18 18 18 17 16 14 13 12 11 10 9 9 10 11 10 10 8 7 7 8 9 11 13 13 13 14 13 13 13 13 12 12 11 11 13 13 13 11 10 10 10 10 11 12 13 11 11 11 9 9 11 10 9 10 10 10 9 10 9 9 10 10 10 11 11 10 9 10 11 11 12 11 10 8 9 10 11 11 11 11 11 10 10 10
22 21 20 19 19 19 19 18 17 15 13 12 11 11 11 11 11 10 11 11 11 10 9 8 10 12 13 14 12 12 13 13 14 13 13 13 12 12 12 13 14 12 11 10 10 10 10 10 11 10 9 11 9 8 11 11 9 9 10 9 9 9 9 10 10 9 10 11 10 9 8 9 9 9 10 10 8 7 7 9 9 9 9 10 10 10 9 9
22 20 19 19 19 20 20 19 18 16 14 13 12 12 13 13 11 10 11 11 11 11 11 9 10 11 12 13 13 13 13 13 13 14 14 14 13 13 12 12 13 13 11 10 9 10 10 10 10 9 9 10 7 6 8 9 8 8 8 7 9 10 9 9 10 10 10 9 9 9 9 9 9 9 9 8 8 7 8 9 9 8 8 8 8 8 9 9
20 19 19 19 19 20 20 19 18 17 15 14 14 15 15 13 12 11 10 10 10 10 10 9 10 10 10 10 12 14 14 13 13 13 13 14 14 14 13 12 13 13 12 10 9 8 10 11 9 7 10 10 7 6 6 6 7 8 6 6 8 8 8 8 9 9 8 7 9 9 9 9 9 10 10 9 9 9 10 10 10 9 8 8 8 9 9 9
19 18 18 19 19 19 19 19 18 18 16 15 15 16 15 14 14 13 12 12 12 11 10 10 10 10 11 10 11 12 13 13 13 13 13 13 14 14 14 14 14 13 12 11 10 9 9 11 9 7 9 9 9 9 8 6 7 7 7 7 7 6 6 7 7 7 6 7 9 9 9 9 9 10 11 11 11 11 12 12 11 10 9 9 9 9 9 9
18 17 17 19 20 19 19 18 18 18 17 17 17 16 15 15 15 15 15 14 14 13 12 11 11 11 11 11 12 11 11 12 13 13 12 12 12 12 12 13 14 13 11 10 10 10 9 10 11 9 8 8 7 8 9 8 8 9 10 9 6 5 6 6 7 7 7 8 8 9 9 8 8 9 11 12 12 12 12 12 11 11 10 9 8 8 8 8
17 15 15 16 16 18 19 18 18 19 18 18 18 16 15 16 16 16 16 16 14 14 13 11 10 11 11 11 12 11 10 12 13 13 12 11 12 12 9 8 11 12 11 10 11 11 9 10 12 11 9 7 6 7 8 8 8 8 10 9 8 7 8 8 7 8 8 8 8 8 8 7 7 8 9 10 10 9 10 11 11 12 11 9 7 7 8 8
15 14 14 14 13 15 17 17 17 18 18 18 18 17 16 16 16 16 16 16 14 13 13 12 11 11 10 10 12 12 12 12 13 13 12 11 10 12 11 9 10 11 11 10 11 12 10 10 12 12 10 8 7 7 7 7 6 6 7 8 8 8 8 8 8 8 8 8 8 7 7 8 9 8 8 8 8 8 9 9 10 11 10 8 7 7 7 8
14 13 13 13 12 13 14 15 16 16 17 18 18 18 17 16 16 16 17 17 15 13 12 14 14 13 12 11 11 12 12 13 14 13 13 12 10 10 11 12 11 11 10 10 11 12 12 11 11 12 12 11 11 10 8 8 8 8 8 9 8 7 7 7 9 10 9 9 9 8 9 10 10 8 8 8 8 9 10 9 10 11 10 9 8 8 8 9
13 12 12 11 10 12 12 13 15 15 16 17 18 18 18 17 17 17 17 16 15 13 12 13 15 16 15 14 12 12 11 12 14 13 12 13 13 11 10 9 10 12 11 10 11 12 12 11 11 12 13 13 14 13 12 11 11 10 10 10 9 8 8 8 10 10 9 9 9 8 9 11 11 10 9 10 10 10 10 11 12 12 12 11 10 10 10 9
13 14 14 12 12 12 12 13 15 15 15 16 18 19 19 18 17 17 17 15 15 14 13 12 14 15 16 15 14 14 13 12 13 14 11 10 11 12 12 10 9 11 13 12 12 12 12 11 11 13 13 14 15 15 14 12 12 11 10 10 11 10 9 9 11 11 10 10 9 9 9 11 12 11 11 11 11 9 9 10 11 12 13 12 12 12 11 11
14 14 14 14 14 14 13 13 14 15 15 15 17 18 19 19 18 18 17 16 15 14 14 13 13 14 14 14 14 13 13 13 14 14 13 12 11 12 13 12 10 12 14 14 14 14 12 12 12 12 12 12 12 12 11 11 10 10 10 10 11 11 10 10 12 11 11 11 10 10 11 11 12 11 11 10 9 7 8 9 10 12 13 13 13 13 13 13
14 14 14 14 15 15 14 13 14 14 14 15 15 16 17 17 18 18 17 17 16 15 15 13 12 13 13 13 13 13 13 14 14 13 13 13 13 14 14 12 11 12 14 12 12 13 13 13 12 12 12 12 11 10 10 11 11 11 11 11 11 11 11 11 12 11 12 13 11 11 11 13 13 12 11 11 10 9 10 10 11 13 14 14 14 15 15 16
13 13 13 13 14 15 14 14 14 15 15 15 15 15 16 16 16 17 17 16 16 16 16 16 14 14 13 12 13 14 13 14 14 13 12 11 11 13 13 12 11 13 13 12 12 13 14 15 14 14 15 15 15 14 12 13 14 14 14 14 13 13 12 11 11 12 13 12 13 12 12 12 13 12 12 12 11 11 11 11 12 13 14 14 15 16 16 17
12 12 12 12 13 13 13 13 13 13 14 14 14 14 15 16 16 16 15 15 15 14 16 16 15 14 13 13 14 15 15 14 13 13 13 11 10 11 12 12 12 13 14 14 15 15 15 16 17 18 18 18 18 19 17 16 17 17 17 17 17 16 15 14 15 16 14 14 15 15 12 13 15 14 13 13 13 13 13 13 14 14 15 16 16 17 17 17
11 12 11 11 12 13 12 13 13 13 12 12 13 12 12 12 13 14 14 14 15 14 15 16 15 14 14 14 14 15 16 16 15 14 14 13 12 12 12 13 14 15 15 16 16 16 16 17 18 18 19 20 20 20 20 19 19 19 19 19 19 18 17 17 19 19 17 18 19 18 16 17 18 17 15 16 16 16 15 15 16 17 18 19 19 19 19 19
10 12 12 11 12 14 14 13 13 13 12 11 11 12 12 11 12 13 13 14 14 14 14 15 14 14 14 13 13 14 15 16 17 16 16 15 14 14 14 14 15 16 15 15 15 15 15 17 18 17 18 19 19 19 20 20 20 21 21 21 21 20 19 19 20 20 19 20 21 19 17 18 19 18 18 18 17 17 16 16 17 17 19 21 21 21 21 20
10 11 12 12 13 14 13 12 12 13 12 11 11 11 11 11 12 13 13 13 14 14 14 15 15 14 13 12 13 14 14 15 16 17 17 17 16 15 15 15 16 16 15 14 15 15 15 16 17 16 17 18 19 19 20 20 20 21 22 21 20 20 20 20 19 19 19 20 20 19 18 19 20 21 20 19 18 18 18 18 19 19 19 20 21 23 24 23
8 9 10 11 12 12 12 12 12 11 11 12 11 11 10 9 10 11 12 11 11 11 13 15 16 15 13 12 13 14 15 16 17 18 18 18 18 18 18 17 17 17 17 16 16 16 16 17 17 16 17 19 19 19 19 19 20 21 21 20 20 19 19 20 20 20 20 20 20 19 19 21 23 23 21 20 19 19 20 20 21 21 20 18 19 22 24 26
7 7 8 8 10 11 11 12 11 11 11 12 11 11 10 9 8 10 12 12 10 10 11 12 14 16 15 14 15 17 17 18 19 20 20 20 20 21 20 20 20 19 19 18 18 18 18 18 18 18 19 20 19 18 19 19 19 20 19 18 19 20 19 19 19 19 19 20 20 20 20 22 23 22 21 21 20 20 20 20 21 21 21 19 19 19 20 22
Wind_Direction
276 275 275 274 273 272 272 271 270 270 270 270 270 270 271 271 272 272 273 273 273 273 273 273 273 274 274 274 274 274 275 272 269 265 260 256 248 246 248 248 247 243 243 247 246 244 244 244 243 244 247 249 247 247 250 248 246 247 248 250 254 252 250 249 242 245 256 266 267 267 266 256 258 266 268 272 274 275 276 266 255 257 252 243 237 225 222 228
276 275 275 274 273 273 272 271 271 270 270 270 270 270 270 271 272 272 272 273 273 273 273 274 274 274 274 275 275 276 275 271 268 263 259 254 247 245 244 244 245 242 242 243 241 238 239 239 239 241 243 245 244 243 244 245 243 243 246 248 250 247 246 247 241 251 264 266 269 267 269 266 262 269 272 272 274 275 275 265 250 246 246 237 226 222 223 227
276 275 275 274 273 273 272 271 271 271 270 270 270 270 270 270 271 272 272 272 273 274 274 275 275 275 275 275 275 276 274 271 267 261 258 252 244 244 243 242 242 241 242 240 237 235 237 238 238 239 240 242 243 243 242 243 245 243 244 248 248 247 248 247 244 263 272 264 267 269 271 272 266 268 267 266 272 277 274 261 251 242 238 232 228 226 224 227
277 276 275 273 273 272 271 271 270 270 270 270 270 270 269 270 271 271 272 272 273 274 275 276 275 275 275 275 276 275 272 269 263 257 257 252 243 241 241 240 240 240 239 238 237 236 240 244 243 241 241 242 242 243 244 242 245 243 242 246 248 249 250 247 248 268 278 270 269 267 268 270 267 267 263 265 271 276 270 252 244 237 232 231 230 228 226 228
277 276 275 273 272 271 270 270 270 270 270 270 271 271 270 269 270 271 272 273 274 275 276 276 275 275 275 275 274 273 270 265 259 255 255 252 244 240 239 239 239 237 236 236 236 237 242 243 242 243 242 243 242 244 245 241 242 245 246 246 247 249 249 249 252 264 272 274 273 265 266 266 266 267 266 268 268 269 265 245 234 229 227 228 227 224 222 224
278 276 275 273 272 270 269 269 269 269 270 270 271 271 270 269 269 270 273 274 275 275 276 276 275 275 275 275 272 269 264 258 259 257 252 250 244 241 239 238 237 234 233 233 233 236 240 240 239 240 240 243 243 244 246 242 240 245 251 249 248 249 250 253 258 266 270 271 268 262 266 268 267 266 267 271 265 261 256 236 231 230 228 227 223 219 217 222
280 278 276 274 272 270 269 268 268 268 269 270 270 270 270 270 270 271 273 274 274 275 276 277 276 275 277 275 268 265 261 259 262 256 249 249 247 242 239 237 234 231 230 229 229 233 237 239 237 236 239 240 241 242 245 246 242 244 250 250 250 252 253 256 260 268 272 269 266 265 268 268 265 264 267 269 255 246 238 223 230 236 232 227 223 221 222 227
281 279 277 275 273 271 269 268 268 268 268 269 270 270 269 270 270 271 272 273 273 275 276 277 276 276 277 275 267 264 262 260 258 251 248 250 247 243 237 233 231 227 226 226 228 232 237 239 234 233 237 237 239 239 242 248 246 246 249 251 254 255 256 258 259 264 268 267 266 268 269 266 263 262 263 256 234 231 222 212 222 229 227 223 222 223 225 231
282 280 278 276 274 272 269 268 268 268 268 269 269 269 269 270 271 271 271 271 272 273 275 276 276 276 275 270 267 266 264 260 253 248 250 250 245 239 234 231 226 223 222 224 229 233 236 235 229 230 235 239 241 241 245 251 250 248 250 252 253 254 257 257 258 261 263 265 263 262 265 265 261 259 256 243 225 223 211 206 217 221 220 218 222 226 227 231
282 280 279 278 276 273 270 268 267 267 268 268 269 268 268 269 271 271 270 270 270 270 273 274 275 275 271 266 262 263 264 261 252 250 253 248 240 233 229 227 221 219 220 223 228 229 232 233 230 234 240 242 244 246 251 251 252 255 255 254 252 255 256 254 257 260 262 264 256 254 262 261 255 250 251 235 215 210 204 205 214 216 220 224 227 231 234 234
282 280 279 278 277 274 270 268 267 267 267 268 268 268 268 268 270 270 269 269 268 268 269 270 273 271 269 266 259 259 263 259 248 249 252 242 233 228 224 222 218 215 218 223 226 229 232 234 238 241 240 244 248 248 249 251 254 256 256 257 257 259 257 254 258 258 260 258 246 249 260 258 249 244 245 228 210 208 205 204 207 211 224 231 233 237 241 240
283 280 279 277 276 275 271 268 266 266 266 266 267 266 267 267 269 270 269 269 267 266 265 266 268 265 268 266 256 256 262 262 249 243 245 236 229 224 218 218 218 216 218 224 230 236 237 236 243 244 239 245 246 241 250 262 262 254 252 256 259 261 258 254 255 254 255 251 243 248 258 255 248 244 239 219 206 206 205 207 210 215 223 229 236 241 243 241
283 281 279 277 275 274 271 269 266 265 264 264 264 264 265 266 267 268 268 268 266 265 264 264 264 264 267 262 258 258 257 256 245 237 240 234 226 222 220 220 219 221 223 229 238 245 243 239 242 240 240 245 240 241 257 269 266 252 249 254 258 262 259 250 246 248 249 245 239 238 250 254 249 245 230 206 197 195 204 217 215 216 222 229 239 239 237 236
283 281 279 277 274 272 271 270 267 265 264 263 263 263 264 265 266 265 265 265 264 263 261 262 262 263 263 258 263 261 250 248 241 238 237 230 225 222 225 226 225 227 228 233 240 247 247 241 239 237 239 242 240 247 257 259 258 252 253 256 252 256 259 246 237 239 240 241 228 222 246 250 246 247 220 198 197 197 211 223 218 219 219 224 235 233 234 233
286 282 279 277 274 272 270 269 268 266 265 264 263 262 262 263 264 263 262 262 261 261 259 260 258 261 265 263 266 258 243 243 242 239 233 225 225 224 223 226 229 232 231 231 234 244 248 240 237 233 234 239 239 244 250 250 250 245 251 258 246 243 255 252 237 228 233 241 216 211 245 248 249 245 212 199 200 201 214 220 215 215 210 215 229 233 237 236
289 285 281 278 275 272 270 268 267 265 266 266 264 263 261 260 261 260 260 259 258 257 256 258 255 258 266 263 266 257 240 241 239 233 227 221 221 222 221 221 226 229 231 228 229 243 245 236 235 230 229 236 234 238 250 253 252 243 240 251 247 242 254 263 245 221 225 235 210 215 245 246 253 233 203 204 202 200 217 223 219 217 213 218 226 232 232 229
293 288 283 280 277 273 271 268 266 265 265 265 263 262 260 260 259 259 258 255 253 253 252 255 255 257 261 262 268 259 242 240 235 224 221 223 222 221 218 215 219 222 225 227 229 237 239 230 226 224 229 235 231 236 247 243 246 250 243 246 253 254 256 256 237 216 217 223 217 229 239 228 233 210 195 210 212 212 225 230 229 228 224 222 226 236 232 221
298 292 286 282 279 275 272 268 265 264 263 262 260 258 258 259 259 259 256 250 249 253 253 251 250 255 257 257 260 251 238 233 228 220 219 225 227 226 222 218 218 217 219 227 229 226 227 225 219 223 233 235 227 225 231 235 243 257 253 246 256 270 260 233 222 221 219 216 217 228 233 225 225 219 209 216 227 232 229 231 234 230 226 226 229 235 231 221
302 295 288 284 280 276 274 270 267 263 262 260 258 256 255 258 258 257 252 247 245 247 251 243 232 240 255 256 251 245 236 224 222 222 219 223 225 227 228 223 221 220 218 221 221 216 217 221 224 227 229 227 227 225 232 243 251 259 260 249 257 282 272 231 218 218 212 208 211 224 234 230 227 231 231 229 239 234 219 227 233 228 228 230 230 228 223 221
307 299 291 285 280 277 274 272 268 263 261 258 256 254 253 256 255 254 249 245 245 246 252 247 233 239 259 268 255 235 226 223 229 229 223 222 221 225 228 222 224 227 224 223 224 221 217 219 226 226 227 232 234 236 243 252 256 255 254 253 261 288 290 233 200 207 208 206 222 241 235 228 232 240 241 241 244 223 210 222 229 229 232 230 228 224 220 220
308 303 294 286 280 277 273 270 267 264 261 255 254 251 252 257 256 260 257 250 250 247 250 252 245 243 252 260 252 228 225 236 237 231 225 223 221 225 224 219 227 232 228 230 232 231 224 224 232 232 234 239 237 238 245 253 260 256 249 251 254 272 293 215 186 212 224 218 236 254 234 230 243 252 251 247 234 218 214 221 225 226 230 231 229 224 222 223
307 303 297 288 281 277 272 269 266 264 262 256 254 252 255 259 259 267 268 260 258 251 247 250 250 246 246 253 248 233 236 241 236 232 225 219 221 223 219 217 226 229 226 230 232 235 232 234 242 239 235 239 242 247 252 253 257 254 245 246 243 236 260 249 210 223 235 236 244 251 244 244 248 252 260 248 226 222 220 219 222 223 228 235 233 228 226 227
305 303 299 289 281 277 272 269 266 263 261 256 254 254 257 262 265 271 270 264 262 257 250 246 246 245 245 250 242 231 238 239 234 232 221 218 222 221 221 222 224 227 228 229 226 228 232 241 249 242 229 235 245 252 259 257 257 252 240 236 235 229 237 264 248 235 240 245 243 245 251 252 248 245 256 250 232 231 227 221 225 229 234 238 234 228 226 225
301 300 298 291 282 276 271 270 266 263 261 256 255 255 259 265 268 273 272 265 262 259 253 246 244 243 242 245 238 232 241 242 237 230 218 219 223 220 225 230 231 236 238 235 232 233 238 246 250 238 226 233 243 252 258 257 256 250 234 226 228 232 236 252 254 245 249 260 252 246 258 257 245 239 251 258 240 231 231 229 237 245 242 236 234 232 228 225
300 297 296 293 285 276 272 269 262 259 259 256 257 260 264 266 266 273 276 267 263 259 253 248 245 243 240 239 236 236 242 245 241 232 219 218 223 226 228 231 236 241 242 240 239 241 244 245 237 229 234 238 242 249 249 245 250 250 234 225 227 234 240 245 255 257 258 269 264 248 257 259 248 243 252 257 245 237 239 242 248 251 239 224 227 232 230 227
299 297 294 292 288 279 271 263 257 260 260 257 264 270 268 266 268 276 275 267 267 259 247 244 241 238 235 231 231 235 243 245 239 231 222 219 227 235 231 231 237 237 240 246 248 245 246 244 234 230 243 246 246 254 251 238 240 245 238 235 234 237 244 248 253 258 252 258 259 242 242 253 252 250 249 247 249 250 249 249 245 238 222 215 222 228 227 227
295 294 292 291 289 281 267 260 260 261 259 259 271 277 268 266 273 279 272 265 267 256 242 242 236 233 232 225 221 227 239 241 234 230 222 218 229 236 231 234 236 234 240 253 257 248 240 243 240 240 248 249 248 253 254 243 238 242 241 243 245 244 250 253 253 254 251 253 258 245 236 245 252 253 248 247 256 255 243 235 229 228 229 224 223 225 226 230
290 290 288 286 286 278 265 265 265 261 258 260 271 277 272 273 275 272 265 262 264 254 244 242 235 236 235 223 218 223 234 237 235 228 214 213 227 230 227 232 234 241 249 254 253 244 235 239 242 246 251 252 251 251 249 243 238 241 240 240 246 248 253 258 257 256 253 251 254 250 245 249 254 255 254 254 257 246 228 224 227 240 247 231 224 226 229 232
285 285 284 282 281 273 264 263 262 260 260 262 270 276 275 273 268 261 258 258 261 260 250 243 237 236 233 224 222 227 232 237 239 224 207 211 224 224 225 230 237 250 252 251 250 244 240 242 241 243 250 254 253 246 243 242 240 242 242 242 248 252 254 256 255 255 253 247 248 250 252 257 260 259 255 255 251 237 228 229 229 231 230 218 217 222 225 227
282 280 279 279 275 268 263 260 257 262 266 266 269 274 273 266 257 255 257 257 262 263 250 243 240 232 227 226 226 227 229 238 240 222 212 219 226 228 233 236 240 249 248 252 259 251 242 241 243 243 247 257 254 241 242 247 243 240 243 250 257 258 254 250 248 249 250 253 251 251 253 254 259 259 252 251 247 235 230 232 228 221 215 210 208 213 222 226
281 278 275 273 268 264 262 256 255 264 270 267 266 267 265 257 248 246 250 257 264 258 243 238 236 230 226 226 228 225 226 234 233 220 221 231 232 232 237 240 240 243 248 256 264 260 246 242 250 249 245 255 258 248 252 256 246 236 241 251 259 263 258 249 249 247 246 252 253 256 260 253 250 255 254 251 244 231 227 227 223 220 217 210 208 215 221 222
280 276 272 267 262 261 257 253 255 264 269 268 263 260 256 250 245 241 244 258 262 252 247 243 237 233 229 228 231 229 225 230 230 223 224 232 234 231 232 233 232 238 250 252 257 263 253 244 249 253 247 249 252 248 251 259 251 238 243 251 253 260 259 250 248 245 244 248 251 260 266 254 248 252 251 246 243 236 229 224 218 215 217 215 217 225 227 228
280 276 270 263 259 257 254 254 257 259 264 265 259 252 245 243 244 240 242 249 250 250 260 257 250 244 233 227 231 231 227 228 229 227 228 231 233 234 232 229 227 230 237 244 255 261 260 257 253 255 250 240 243 247 241 246 247 236 239 245 243 244 246 249 249 247 249 253 258 261 256 252 255 254 247 240 239 236 223 215 213 214 219 222 222 228 236 242
281 275 268 261 257 254 252 253 252 252 258 259 253 246 241 242 247 246 245 246 248 253 260 261 263 258 239 227 227 228 227 229 227 225 228 231 233 233 231 230 229 228 229 242 257 251 253 264 254 249 245 233 241 246 228 231 244 242 239 237 237 237 236 243 245 243 246 252 261 260 245 246 250 245 242 236 224 213 202 204 214 219 222 225 229 237 243 248
281 273 266 260 256 252 249 248 246 246 251 251 247 242 239 242 245 245 246 246 248 254 255 256 261 259 243 229 228 229 228 228 226 226 229 231 232 231 229 229 231 231 231 239 251 246 243 249 247 241 230 223 236 243 223 225 243 252 246 235 241 242 235 239 240 236 238 248 256 252 242 239 238 240 243 232 214 208 202 203 212 222 223 224 235 245 248 252
280 272 265 259 256 251 246 243 241 241 243 243 242 239 238 242 242 240 244 245 250 259 260 255 250 249 247 236 232 234 229 223 223 230 234 232 232 231 230 230 230 229 226 228 243 250 239 242 253 240 218 217 231 236 228 222 234 252 248 232 242 240 229 236 244 241 238 245 250 244 242 244 243 250 249 235 227 226 223 223 225 227 228 233 241 248 252 256
279 273 265 258 254 250 243 238 235 235 239 240 240 241 242 244 243 242 245 248 256 268 266 256 246 246 249 242 237 235 227 221 223 230 234 232 232 235 236 234 228 226 225 224 239 251 239 240 252 237 221 233 239 234 240 239 234 244 240 237 256 255 236 233 240 244 241 243 247 243 240 242 243 250 249 240 236 233 229 232 235 235 236 240 243 245 248 251
278 274 267 259 252 246 239 234 231 231 236 240 241 245 246 246 246 248 249 251 260 269 265 253 244 242 245 242 241 238 224 222 227 229 231 231 231 237 243 235 223 221 225 223 232 247 244 241 245 238 233 248 246 232 244 257 248 239 238 244 257 253 248 247 243 244 242 243 252 252 247 245 245 250 253 249 241 234 234 234 235 237 236 232 232 236 241 245
274 271 268 260 250 241 235 230 229 231 235 240 242 244 246 246 247 248 249 249 255 263 260 251 244 241 240 236 237 239 231 227 229 230 230 229 230 236 242 231 219 223 231 227 230 241 241 235 239 240 238 249 257 235 234 253 259 247 244 248 248 239 242 249 244 239 237 239 250 256 255 255 253 251 256 252 237 230 239 239 235 234 227 220 223 235 242 242
271 265 263 261 252 239 228 224 229 234 238 241 242 244 246 247 247 245 246 247 252 257 253 246 244 245 244 238 235 237 236 234 233 233 232 232 236 238 234 226 222 228 232 230 233 240 240 235 236 240 241 244 249 235 228 240 252 252 247 246 251 250 248 255 258 254 246 240 245 252 252 254 255 256 259 248 230 230 238 237 236 233 226 224 229 237 242 241
269 258 258 260 247 227 217 223 234 240 243 244 243 245 247 248 248 248 251 253 253 254 252 248 245 245 248 249 242 236 233 232 232 233 234 234 237 238 234 232 229 228 231 234 235 238 239 237 237 239 242 243 243 245 250 251 250 251 244 237 245 252 247 254 264 264 255 245 242 244 248 254 255 257 259 248 241 244 238 231 237 237 230 232 239 244 247 245
262 251 254 252 229 215 218 233 243 243 244 245 244 245 246 246 247 247 250 253 252 251 252 250 246 244 246 248 246 243 238 233 232 235 239 236 233 232 235 240 233 224 225 231 234 237 237 236 240 243 244 244 248 254 259 261 261 258 245 238 245 253 244 239 249 257 257 254 251 246 250 257 256 257 263 260 260 255 234 227 238 242 240 241 246 250 250 250
258 252 253 245 228 225 234 244 248 246 246 247 245 245 245 245 245 246 246 247 249 250 250 250 246 244 246 245 244 244 242 240 237 235 238 237 231 232 238 246 243 229 228 233 239 244 244 241 246 251 251 252 256 258 259 261 265 262 254 248 247 248 246 242 249 257 258 258 258 256 259 261 259 262 264 263 268 262 236 230 238 242 242 242 244 246 247 251
259 252 249 242 234 234 239 245 247 248 248 246 245 245 245 245 245 246 247 245 245 246 247 251 248 243 243 244 244 243 239 238 239 236 237 239 238 238 238 238 237 232 233 238 240 242 244 244 246 250 255 259 260 259 257 257 256 251 254 257 249 248 256 260 261 268 268 262 257 256 258 258 260 265 263 263 275 272 249 243 243 242 243 244 245 246 246 251
257 247 245 243 237 235 240 245 246 247 248 248 247 247 247 246 245 247 249 246 243 242 243 250 250 243 243 244 246 248 242 236 237 238 238 239 239 237 232 227 227 230 235 242 243 241 242 242 241 240 244 249 248 245 250 257 257 253 257 263 260 258 264 263 262 265 266 266 264 257 252 255 262 270 270 268 272 271 263 257 251 248 248 247 248 248 248 252
251 244 246 247 242 239 244 250 250 247 248 248 251 251 248 246 246 249 249 244 243 244 243 248 251 245 245 247 245 249 248 238 237 241 242 241 240 234 227 224 227 231 237 244 246 245 245 245 243 241 242 246 249 251 257 262 262 260 262 266 266 266 267 266 264 259 257 264 269 259 248 253 262 267 271 271 268 266 265 260 257 258 253 247 248 250 252 255
250 244 246 247 244 242 245 248 247 247 248 247 248 251 249 246 245 244 242 239 243 247 244 247 249 242 244 249 244 245 248 244 242 245 245 245 243 233 224 227 235 239 243 246 246 248 251 251 251 250 251 254 257 261 265 265 263 263 263 264 266 268 269 268 264 258 257 265 267 261 255 259 260 259 264 268 267 266 264 257 258 262 257 252 252 251 253 257
252 247 249 248 243 240 244 249 246 247 252 250 246 248 250 249 246 241 238 240 245 246 242 244 247 245 250 254 247 244 247 246 246 246 242 241 243 239 235 239 245 246 249 253 252 250 251 252 252 254 256 258 260 261 263 261 261 262 262 263 265 267 268 268 265 263 262 261 260 259 262 264 263 263 263 263 263 265 265 258 255 257 257 257 258 256 255 256
258 250 252 256 250 244 250 257 252 245 249 251 248 248 249 248 247 244 241 239 242 244 242 242 246 250 253 253 248 246 247 245 244 243 241 241 245 245 244 249 252 252 254 258 257 253 252 253 254 254 256 259 262 264 265 264 263 263 263 264 265 266 267 267 266 267 264 260 258 260 263 265 267 268 267 265 264 267 269 267 265 265 263 260 258 257 257 260
263 252 254 260 256 249 252 260 253 242 244 249 247 249 250 249 248 246 241 238 242 244 242 242 248 251 249 248 246 245 247 246 245 245 243 243 245 246 245 248 254 257 258 257 256 256 255 253 253 254 258 262 263 264 266 266 265 265 265 266 265 267 268 266 265 268 267 263 265 266 267 269 270 270 269 269 269 270 271 271 271 273 271 267 262 257 257 261
270 255 257 257 249 246 251 254 246 236 239 245 245 248 253 258 258 248 239 238 246 247 240 240 247 247 244 249 250 247 250 251 250 251 250 246 247 249 249 250 254 258 260 258 258 258 256 254 256 258 261 263 263 264 266 268 268 268 268 268 266 266 266 264 264 266 265 264 269 271 269 268 269 270 270 270 269 269 268 269 269 269 271 272 271 267 265 262
289 264 263 253 240 242 247 245 242 238 239 245 250 250 251 260 264 248 236 238 249 255 252 248 249 247 244 251 256 255 258 259 256 256 255 252 253 254 253 255 256 256 257 259 258 258 257 258 260 260 261 262 262 265 270 273 272 269 268 270 271 267 264 263 265 267 265 264 265 265 265 266 269 270 270 269 267 265 266 268 268 267 267 269 271 273 276 271